| time (UTC) | temp F | wind direction | speed MPH | gust MPH | rain 1hr in | rain 24hr in | rain mn in | humidity % | barometer mb |
| 20260505233105 | 45 | 104 | 5.0 | 10.0 | 0.00 | 0.00 | 0.00 | 85 | 1015.9 |
| 20260505232606 | 45 | 100 | 3.0 | 8.0 | 0.00 | 0.00 | 0.00 | 86 | 1015.9 |
| 20260505232105 | 46 | 118 | 4.0 | 9.0 | 0.00 | 0.00 | 0.00 | 86 | 1015.9 |
| 20260505231605 | 46 | 107 | 2.0 | 3.0 | 0.00 | 0.00 | 0.00 | 86 | 1015.9 |
| 20260505231105 | 46 | 105 | 5.0 | 8.0 | 0.00 | 0.00 | 0.00 | 86 | 1015.9 |
| 20260505230605 | 46 | 351 | 0.0 | 0.0 | 0.00 | 0.00 | 0.00 | 86 | 1015.9 |
| 20260505230105 | 46 | 349 | 0.0 | 0.0 | 0.00 | 0.00 | 0.00 | 86 | 1015.9 |
| 20260505225605 | 46 | 350 | 0.0 | 0.0 | 0.00 | 0.00 | 0.00 | 86 | 1015.9 |
| 20260505225105 | 46 | 352 | 0.0 | 0.0 | 0.00 | 0.00 | 0.00 | 86 | 1015.9 |
| 20260505224606 | 46 | 351 | 0.0 | 0.0 | 0.00 | 0.00 | 0.00 | 86 | 1015.9 |
| 20260505224105 | 46 | 352 | 0.0 | 0.0 | 0.00 | 0.00 | 0.00 | 85 | 1015.9 |
| 20260505223106 | 46 | 351 | 0.0 | 0.0 | 0.00 | 0.00 | 0.00 | 85 | 1015.9 |
| 20260505222605 | 46 | 350 | 0.0 | 0.0 | 0.00 | 0.00 | 0.00 | 85 | 1015.9 |
| 20260505222105 | 46 | 349 | 0.0 | 0.0 | 0.00 | 0.00 | 0.00 | 85 | 1015.9 |
| 20260505221605 | 46 | 350 | 0.0 | 0.0 | 0.00 | 0.00 | 0.00 | 85 | 1015.9 |
| 20260505221105 | 46 | 350 | 0.0 | 0.0 | 0.00 | 0.00 | 0.00 | 85 | 1015.9 |
| 20260505220605 | 46 | 351 | 0.0 | 3.0 | 0.00 | 0.00 | 0.00 | 84 | 1015.9 |
| 20260505220105 | 46 | 349 | 1.0 | 3.0 | 0.00 | 0.00 | 0.00 | 84 | 1015.9 |
| 20260505215604 | 46 | 349 | 2.0 | 3.0 | 0.00 | 0.00 | 0.00 | 84 | 1015.9 |
| 20260505215105 | 47 | 352 | 1.0 | 3.0 | 0.00 | 0.00 | 0.00 | 84 | 1015.9 |
| 20260505214605 | 47 | 349 | 2.0 | 3.0 | 0.00 | 0.00 | 0.00 | 84 | 1015.9 |
| 20260505214105 | 47 | 351 | 1.0 | 3.0 | 0.00 | 0.00 | 0.00 | 84 | 1015.9 |
| 20260505213105 | 47 | 351 | 2.0 | 3.0 | 0.00 | 0.00 | 0.00 | 83 | 1015.9 |
| 20260505212605 | 47 | 348 | 2.0 | 3.0 | 0.00 | 0.00 | 0.00 | 83 | 1015.9 |
| 20260505212105 | 47 | 350 | 2.0 | 3.0 | 0.00 | 0.00 | 0.00 | 83 | 1015.9 |
| 20260505211604 | 47 | 352 | 1.0 | 3.0 | 0.00 | 0.00 | 0.00 | 83 | 1015.9 |
| 20260505211105 | 47 | 351 | 2.0 | 3.0 | 0.00 | 0.00 | 0.00 | 82 | 1015.9 |
| 20260505210605 | 47 | 355 | 1.0 | 3.0 | 0.00 | 0.00 | 0.00 | 82 | 1015.9 |
| 20260505205605 | 47 | 351 | 2.0 | 3.0 | 0.00 | 0.00 | 0.00 | 81 | 1015.9 |
| 20260505205105 | 48 | 350 | 0.0 | 3.0 | 0.00 | 0.00 | 0.00 | 81 | 1015.9 |
| 20260505204605 | 48 | 349 | 0.0 | 3.0 | 0.00 | 0.00 | 0.00 | 81 | 1015.9 |
| 20260505204105 | 48 | 352 | 2.0 | 3.0 | 0.00 | 0.00 | 0.00 | 80 | 1015.9 |
| 20260505202605 | 48 | 352 | 1.0 | 3.0 | 0.00 | 0.00 | 0.00 | 80 | 1015.9 |
| 20260505202105 | 48 | 352 | 1.0 | 3.0 | 0.00 | 0.00 | 0.00 | 79 | 1015.9 |
| 20260505201106 | 48 | 353 | 2.0 | 3.0 | 0.00 | 0.00 | 0.00 | 78 | 1015.9 |
| 20260505200605 | 48 | 353 | 2.0 | 3.0 | 0.00 | 0.00 | 0.00 | 78 | 1015.9 |
| 20260505200105 | 48 | 353 | 2.0 | 3.0 | 0.00 | 0.00 | 0.00 | 77 | 1015.9 |
| 20260505195605 | 48 | 352 | 2.0 | 3.0 | 0.00 | 0.00 | 0.00 | 77 | 1015.9 |
| 20260505195106 | 48 | 353 | 2.0 | 3.0 | 0.00 | 0.00 | 0.00 | 77 | 1015.9 |
| 20260505194605 | 49 | 353 | 2.0 | 3.0 | 0.00 | 0.00 | 0.00 | 76 | 1015.9 |
| 20260505194105 | 49 | 353 | 3.0 | 5.0 | 0.00 | 0.00 | 0.00 | 76 | 1015.9 |
| 20260505193605 | 49 | 352 | 5.0 | 6.0 | 0.00 | 0.00 | 0.00 | 76 | 1015.9 |
| 20260505190105 | 50 | 2 | 5.0 | 6.0 | 0.00 | 0.00 | 0.00 | 75 | 1015.9 |
| 20260505185605 | 50 | 359 | 3.0 | 6.0 | 0.00 | 0.00 | 0.00 | 75 | 1015.9 |
| 20260505185105 | 50 | 7 | 3.0 | 6.0 | 0.00 | 0.00 | 0.00 | 73 | 1015.9 |
| 20260505184604 | 50 | 0 | 5.0 | 8.0 | 0.00 | 0.00 | 0.00 | 73 | 1015.9 |
| 20260505184105 | 50 | 347 | 5.0 | 7.0 | 0.00 | 0.00 | 0.00 | 73 | 1015.9 |
| 20260505183605 | 50 | 8 | 3.0 | 8.0 | 0.00 | 0.00 | 0.00 | 72 | 1015.9 |
| 20260505183105 | 50 | 22 | 5.0 | 6.0 | 0.00 | 0.00 | 0.00 | 72 | 1015.9 |
| 20260505182605 | 50 | 357 | 4.0 | 9.0 | 0.00 | 0.00 | 0.00 | 73 | 1015.9 |
| 20260505182105 | 50 | 1 | 5.0 | 9.0 | 0.00 | 0.00 | 0.00 | 72 | 1015.9 |
| 20260505181605 | 50 | 335 | 6.0 | 10.0 | 0.00 | 0.00 | 0.00 | 72 | 1015.9 |
| 20260505181105 | 50 | 5 | 5.0 | 7.0 | 0.00 | 0.00 | 0.00 | 72 | 1015.9 |
| 20260505180605 | 50 | 346 | 5.0 | 8.0 | 0.00 | 0.00 | 0.00 | 71 | 1015.9 |
| 20260505180105 | 51 | 334 | 7.0 | 9.0 | 0.00 | 0.00 | 0.00 | 71 | 1015.9 |
| 20260505175606 | 51 | 2 | 5.0 | 9.0 | 0.00 | 0.00 | 0.00 | 70 | 1015.9 |
| 20260505175105 | 51 | 330 | 4.0 | 7.0 | 0.00 | 0.00 | 0.00 | 71 | 1015.9 |
| 20260505174605 | 51 | 4 | 6.0 | 9.0 | 0.00 | 0.00 | 0.00 | 70 | 1015.9 |
| 20260505173605 | 51 | 338 | 7.0 | 10.0 | 0.00 | 0.00 | 0.00 | 68 | 1015.9 |
| 20260505173105 | 52 | 324 | 6.0 | 9.0 | 0.00 | 0.00 | 0.00 | 70 | 1015.9 |
| 20260505172605 | 52 | 357 | 6.0 | 8.0 | 0.00 | 0.00 | 0.00 | 71 | 1015.9 |
| 20260505172105 | 51 | 313 | 7.0 | 10.0 | 0.00 | 0.00 | 0.00 | 73 | 1015.9 |
| 20260505170605 | 50 | 5 | 8.0 | 12.0 | 0.00 | 0.00 | 0.00 | 70 | 1015.9 |
| 20260505165605 | 51 | 339 | 5.0 | 8.0 | 0.00 | 0.00 | 0.00 | 68 | 1015.9 |
| 20260505165105 | 51 | 1 | 6.0 | 12.0 | 0.00 | 0.00 | 0.00 | 66 | 1015.9 |
| 20260505164105 | 51 | 4 | 5.0 | 10.0 | 0.00 | 0.00 | 0.00 | 69 | 1015.9 |
| 20260505163605 | 51 | 354 | 6.0 | 10.0 | 0.00 | 0.00 | 0.00 | 71 | 1015.9 |
| 20260505163105 | 51 | 347 | 7.0 | 12.0 | 0.00 | 0.00 | 0.00 | 72 | 1015.9 |
| 20260505162605 | 51 | 9 | 6.0 | 10.0 | 0.00 | 0.00 | 0.00 | 71 | 1015.9 |
| 20260505162105 | 51 | 332 | 6.0 | 10.0 | 0.00 | 0.00 | 0.00 | 72 | 1015.9 |
| 20260505161605 | 52 | 345 | 3.0 | 9.0 | 0.00 | 0.00 | 0.00 | 73 | 1015.9 |
| 20260505160605 | 51 | 309 | 6.0 | 10.0 | 0.00 | 0.00 | 0.00 | 72 | 1015.9 |
| 20260505160105 | 51 | 18 | 6.0 | 8.0 | 0.00 | 0.00 | 0.00 | 72 | 1015.9 |
| 20260505153104 | 51 | 8 | 4.0 | 8.0 | 0.00 | 0.00 | 0.00 | 71 | 1015.9 |
| 20260505152605 | 51 | 318 | 5.0 | 9.0 | 0.00 | 0.00 | 0.00 | 73 | 1015.9 |
| 20260505152105 | 51 | 353 | 5.0 | 10.0 | 0.00 | 0.00 | 0.00 | 73 | 1015.9 |
| 20260505151605 | 51 | 342 | 5.0 | 10.0 | 0.00 | 0.00 | 0.00 | 73 | 1015.9 |
| 20260505151105 | 51 | 342 | 7.0 | 9.0 | 0.00 | 0.00 | 0.00 | 70 | 1015.9 |
| 20260505150105 | 51 | 13 | 5.0 | 9.0 | 0.00 | 0.00 | 0.00 | 72 | 1015.9 |
| 20260505140605 | 50 | 344 | 5.0 | 9.0 | 0.00 | 0.00 | 0.00 | 79 | 1015.9 |
| 20260505140105 | 51 | 346 | 7.0 | 10.0 | 0.00 | 0.00 | 0.00 | 79 | 1015.9 |
| 20260505130105 | 51 | 353 | 5.0 | 10.0 | 0.00 | 0.00 | 0.00 | 75 | 1015.9 |
| 20260505124605 | 51 | 333 | 7.0 | 14.0 | 0.00 | 0.00 | 0.00 | 75 | 1015.9 |
| 20260505123605 | 51 | 318 | 5.0 | 12.0 | 0.00 | 0.00 | 0.00 | 77 | 1015.9 |
| 20260505123105 | 51 | 358 | 7.0 | 12.0 | 0.00 | 0.00 | 0.00 | 77 | 1015.9 |
| 20260505122605 | 51 | 351 | 6.0 | 12.0 | 0.00 | 0.00 | 0.00 | 78 | 1015.9 |
| 20260505122105 | 51 | 0 | 8.0 | 13.0 | 0.00 | 0.00 | 0.00 | 80 | 1015.9 |
| 20260505121605 | 51 | 339 | 6.0 | 12.0 | 0.00 | 0.00 | 0.00 | 80 | 1015.9 |
| 20260505121105 | 51 | 359 | 7.0 | 15.0 | 0.00 | 0.00 | 0.00 | 80 | 1015.9 |
| 20260505120606 | 51 | 348 | 9.0 | 12.0 | 0.00 | 0.00 | 0.00 | 79 | 1015.9 |
| 20260505120105 | 51 | 352 | 7.0 | 13.0 | 0.00 | 0.00 | 0.00 | 77 | 1015.9 |
| 20260505115605 | 51 | 324 | 9.0 | 14.0 | 0.00 | 0.00 | 0.00 | 77 | 1015.9 |
| 20260505115105 | 51 | 335 | 8.0 | 13.0 | 0.00 | 0.00 | 0.00 | 79 | 1015.9 |
| 20260505114605 | 51 | 331 | 9.0 | 14.0 | 0.00 | 0.00 | 0.00 | 78 | 1015.9 |
| 20260505114105 | 51 | 312 | 7.0 | 12.0 | 0.00 | 0.00 | 0.00 | 78 | 1015.9 |
| 20260505113605 | 51 | 340 | 7.0 | 12.0 | 0.00 | 0.00 | 0.00 | 77 | 1015.9 |
| 20260505113105 | 52 | 357 | 6.0 | 12.0 | 0.00 | 0.00 | 0.00 | 78 | 1015.9 |
| 20260505112605 | 52 | 330 | 6.0 | 12.0 | 0.00 | 0.00 | 0.00 | 77 | 1015.9 |
| 20260505111605 | 51 | 19 | 4.0 | 8.0 | 0.00 | 0.00 | 0.00 | 79 | 1015.9 |
| 20260505111105 | 50 | 357 | 6.0 | 12.0 | 0.00 | 0.00 | 0.00 | 79 | 1015.9 |
| 20260505110605 | 51 | 328 | 6.0 | 9.0 | 0.00 | 0.00 | 0.00 | 79 | 1015.9 |
| 20260505110106 | 50 | 21 | 3.0 | 12.0 | 0.00 | 0.00 | 0.00 | 80 | 1015.9 |
| 20260505102105 | 49 | 3 | 6.0 | 12.0 | 0.00 | 0.00 | 0.00 | 87 | 1015.9 |
| 20260505101605 | 49 | 338 | 7.0 | 12.0 | 0.00 | 0.00 | 0.00 | 87 | 1015.9 |
| 20260505101106 | 49 | 0 | 7.0 | 13.0 | 0.00 | 0.00 | 0.00 | 86 | 1015.9 |
| 20260505100606 | 49 | 335 | 7.0 | 13.0 | 0.00 | 0.00 | 0.00 | 86 | 1015.9 |
| 20260505100105 | 49 | 353 | 7.0 | 12.0 | 0.00 | 0.00 | 0.00 | 85 | 1015.9 |
| 20260505095605 | 49 | 343 | 9.0 | 13.0 | 0.00 | 0.00 | 0.00 | 85 | 1015.9 |
| 20260505095105 | 49 | 334 | 8.0 | 12.0 | 0.00 | 0.00 | 0.00 | 84 | 1015.9 |
| 20260505093605 | 49 | 332 | 8.0 | 18.0 | 0.00 | 0.00 | 0.00 | 85 | 1015.9 |
| 20260505093105 | 49 | 346 | 6.0 | 14.0 | 0.00 | 0.00 | 0.00 | 85 | 1015.9 |
| 20260505092105 | 50 | 329 | 9.0 | 13.0 | 0.00 | 0.00 | 0.00 | 86 | 1015.9 |
| 20260505091605 | 50 | 335 | 7.0 | 12.0 | 0.00 | 0.00 | 0.00 | 85 | 1015.9 |
| 20260505091105 | 50 | 346 | 6.0 | 12.0 | 0.00 | 0.00 | 0.00 | 85 | 1015.9 |
| 20260505090605 | 50 | 316 | 7.0 | 12.0 | 0.00 | 0.00 | 0.00 | 85 | 1015.9 |
| 20260505090105 | 50 | 314 | 6.0 | 12.0 | 0.00 | 0.00 | 0.00 | 86 | 1015.9 |
| 20260505085605 | 50 | 336 | 5.0 | 12.0 | 0.00 | 0.00 | 0.00 | 86 | 1015.9 |
| 20260505085105 | 50 | 310 | 5.0 | 7.0 | 0.00 | 0.00 | 0.00 | 87 | 1015.9 |
| 20260505084105 | 50 | 308 | 3.0 | 5.0 | 0.00 | 0.00 | 0.00 | 88 | 1015.9 |
| 20260505083605 | 49 | 300 | 5.0 | 7.0 | 0.00 | 0.00 | 0.00 | 89 | 1015.9 |
| 20260505083105 | 49 | 334 | 3.0 | 6.0 | 0.00 | 0.00 | 0.00 | 89 | 1015.9 |
| 20260505082605 | 49 | 326 | 3.0 | 5.0 | 0.00 | 0.00 | 0.00 | 89 | 1015.9 |
| 20260505082104 | 49 | 331 | 3.0 | 6.0 | 0.00 | 0.00 | 0.00 | 89 | 1015.9 |
| 20260505081605 | 49 | 329 | 5.0 | 7.0 | 0.00 | 0.00 | 0.00 | 90 | 1015.9 |
| 20260505081105 | 49 | 321 | 3.0 | 6.0 | 0.00 | 0.00 | 0.00 | 89 | 1015.9 |
| 20260505080606 | 49 | 316 | 3.0 | 7.0 | 0.00 | 0.00 | 0.00 | 90 | 1015.9 |
| 20260505080105 | 48 | 323 | 5.0 | 7.0 | 0.00 | 0.00 | 0.00 | 90 | 1015.9 |
| 20260505075605 | 48 | 324 | 2.0 | 7.0 | 0.00 | 0.00 | 0.00 | 90 | 1015.9 |
| 20260505074605 | 48 | 335 | 4.0 | 8.0 | 0.00 | 0.00 | 0.00 | 90 | 1015.9 |
| 20260505074105 | 48 | 334 | 3.0 | 6.0 | 0.00 | 0.00 | 0.00 | 91 | 1015.9 |
| 20260505073604 | 48 | 343 | 4.0 | 6.0 | 0.00 | 0.00 | 0.00 | 90 | 1015.9 |
| 20260505072605 | 47 | 324 | 2.0 | 5.0 | 0.00 | 0.00 | 0.00 | 91 | 1015.9 |
| 20260505072104 | 47 | 321 | 3.0 | 5.0 | 0.00 | 0.00 | 0.00 | 91 | 1015.9 |
| 20260505071605 | 47 | 323 | 3.0 | 6.0 | 0.00 | 0.00 | 0.00 | 91 | 1015.9 |
| 20260505070605 | 47 | 327 | 4.0 | 6.0 | 0.00 | 0.00 | 0.00 | 90 | 1015.9 |
| 20260505070105 | 47 | 337 | 3.0 | 7.0 | 0.00 | 0.00 | 0.00 | 90 | 1015.9 |
| 20260505065605 | 47 | 340 | 4.0 | 8.0 | 0.00 | 0.00 | 0.00 | 90 | 1015.9 |
| 20260505064604 | 47 | 356 | 3.0 | 5.0 | 0.00 | 0.00 | 0.00 | 90 | 1015.9 |
| 20260505064105 | 47 | 326 | 2.0 | 3.0 | 0.00 | 0.00 | 0.00 | 90 | 1015.9 |
| 20260505063605 | 47 | 336 | 2.0 | 5.0 | 0.00 | 0.00 | 0.00 | 90 | 1015.9 |
| 20260505063105 | 47 | 348 | 2.0 | 3.0 | 0.00 | 0.00 | 0.00 | 90 | 1015.9 |
| 20260505062105 | 47 | 332 | 3.0 | 5.0 | 0.00 | 0.00 | 0.00 | 89 | 1015.9 |
| 20260505061105 | 47 | 334 | 3.0 | 5.0 | 0.00 | 0.00 | 0.00 | 90 | 1015.9 |
| 20260505060605 | 47 | 328 | 3.0 | 6.0 | 0.00 | 0.00 | 0.00 | 90 | 1015.9 |
| 20260505060105 | 47 | 313 | 3.0 | 7.0 | 0.00 | 0.00 | 0.00 | 89 | 1015.9 |
| 20260505055605 | 46 | 334 | 2.0 | 5.0 | 0.00 | 0.00 | 0.00 | 89 | 1015.9 |
| 20260505055105 | 46 | 343 | 3.0 | 5.0 | 0.00 | 0.00 | 0.00 | 89 | 1015.9 |
| 20260505054105 | 46 | 319 | 3.0 | 5.0 | 0.00 | 0.00 | 0.00 | 89 | 1015.9 |
| 20260505053105 | 46 | 328 | 2.0 | 3.0 | 0.00 | 0.00 | 0.00 | 89 | 1015.9 |
| 20260505052605 | 46 | 322 | 2.0 | 5.0 | 0.00 | 0.00 | 0.00 | 89 | 1015.9 |
| 20260505052105 | 46 | 321 | 3.0 | 5.0 | 0.00 | 0.00 | 0.00 | 89 | 1015.9 |
| 20260505051605 | 46 | 309 | 2.0 | 5.0 | 0.00 | 0.00 | 0.00 | 89 | 1015.9 |
| 20260505051106 | 46 | 321 | 2.0 | 6.0 | 0.00 | 0.00 | 0.00 | 89 | 1015.9 |
| 20260505050606 | 46 | 321 | 3.0 | 7.0 | 0.00 | 0.00 | 0.00 | 89 | 1015.9 |
| 20260505050105 | 46 | 319 | 3.0 | 5.0 | 0.00 | 0.00 | 0.00 | 89 | 1015.9 |
| 20260505041105 | 46 | 327 | 3.0 | 5.0 | 0.00 | 0.00 | 0.00 | 92 | 1015.9 |
| 20260505040606 | 46 | 318 | 4.0 | 6.0 | 0.00 | 0.00 | 0.00 | 92 | 1015.9 |
| 20260505035605 | 46 | 306 | 3.0 | 6.0 | 0.00 | 0.00 | 0.00 | 92 | 1015.9 |
| 20260505035105 | 45 | 313 | 3.0 | 6.0 | 0.00 | 0.00 | 0.00 | 92 | 1015.9 |
| 20260505034605 | 45 | 321 | 2.0 | 5.0 | 0.00 | 0.00 | 0.00 | 92 | 1015.9 |
| 20260505034105 | 45 | 323 | 2.0 | 6.0 | 0.00 | 0.00 | 0.00 | 92 | 1015.9 |
| 20260505033605 | 45 | 317 | 3.0 | 5.0 | 0.00 | 0.00 | 0.00 | 92 | 1015.9 |
| 20260505033105 | 45 | 322 | 1.0 | 3.0 | 0.00 | 0.00 | 0.00 | 92 | 1015.9 |
| 20260505032605 | 45 | 328 | 2.0 | 5.0 | 0.00 | 0.00 | 0.00 | 92 | 1015.9 |
| 20260505031605 | 45 | 336 | 3.0 | 6.0 | 0.00 | 0.00 | 0.00 | 92 | 1015.9 |
| 20260505031105 | 45 | 326 | 1.0 | 3.0 | 0.00 | 0.00 | 0.00 | 92 | 1015.9 |
| 20260505030605 | 45 | 327 | 2.0 | 3.0 | 0.00 | 0.00 | 0.00 | 93 | 1015.9 |
| 20260505030105 | 45 | 315 | 3.0 | 5.0 | 0.00 | 0.00 | 0.00 | 93 | 1015.9 |
| 20260505025605 | 45 | 326 | 3.0 | 6.0 | 0.00 | 0.00 | 0.00 | 93 | 1015.9 |
| 20260505025105 | 45 | 301 | 4.0 | 5.0 | 0.00 | 0.00 | 0.00 | 93 | 1015.9 |
| 20260505024604 | 45 | 301 | 3.0 | 5.0 | 0.00 | 0.00 | 0.00 | 92 | 1015.9 |
| 20260505024105 | 45 | 301 | 2.0 | 3.0 | 0.00 | 0.00 | 0.00 | 92 | 1015.9 |
| 20260505023605 | 45 | 310 | 2.0 | 5.0 | 0.00 | 0.00 | 0.00 | 92 | 1015.9 |
| 20260505023105 | 45 | 303 | 2.0 | 3.0 | 0.00 | 0.00 | 0.00 | 92 | 1015.9 |
| 20260505022105 | 46 | 282 | 2.0 | 5.0 | 0.00 | 0.00 | 0.00 | 93 | 1015.9 |
| 20260505021605 | 46 | 279 | 3.0 | 5.0 | 0.00 | 0.00 | 0.00 | 93 | 1015.9 |
| 20260505020605 | 46 | 288 | 3.0 | 6.0 | 0.00 | 0.00 | 0.00 | 92 | 1015.9 |
| 20260505015605 | 46 | 303 | 3.0 | 6.0 | 0.00 | 0.00 | 0.00 | 92 | 1015.9 |
| 20260505015105 | 46 | 299 | 4.0 | 6.0 | 0.00 | 0.00 | 0.00 | 92 | 1015.9 |
| 20260505014605 | 46 | 289 | 5.0 | 6.0 | 0.00 | 0.00 | 0.00 | 92 | 1015.9 |
| 20260505014106 | 46 | 314 | 5.0 | 7.0 | 0.00 | 0.00 | 0.00 | 92 | 1015.9 |
| 20260505013605 | 46 | 283 | 5.0 | 7.0 | 0.00 | 0.00 | 0.00 | 91 | 1015.9 |
| 20260505013105 | 46 | 311 | 5.0 | 8.0 | 0.00 | 0.00 | 0.00 | 91 | 1015.9 |
| 20260505012605 | 46 | 305 | 3.0 | 6.0 | 0.00 | 0.00 | 0.00 | 91 | 1015.9 |
| 20260505012105 | 46 | 312 | 3.0 | 7.0 | 0.00 | 0.00 | 0.00 | 91 | 1015.9 |
| 20260505011605 | 47 | 302 | 5.0 | 8.0 | 0.00 | 0.00 | 0.00 | 90 | 1015.9 |
| 20260505010606 | 46 | 301 | 5.0 | 7.0 | 0.00 | 0.00 | 0.00 | 89 | 1015.9 |
| 20260505010104 | 46 | 306 | 3.0 | 6.0 | 0.00 | 0.00 | 0.00 | 89 | 1015.9 |
| 20260505005605 | 46 | 316 | 4.0 | 6.0 | 0.00 | 0.00 | 0.00 | 89 | 1015.9 |
| 20260505005105 | 47 | 317 | 4.0 | 6.0 | 0.00 | 0.00 | 0.00 | 89 | 1015.9 |
| 20260505004105 | 47 | 300 | 3.0 | 5.0 | 0.00 | 0.00 | 0.00 | 88 | 1015.9 |
| 20260505003605 | 47 | 281 | 2.0 | 3.0 | 0.00 | 0.00 | 0.00 | 88 | 1015.9 |
| 20260505003105 | 47 | 269 | 3.0 | 5.0 | 0.00 | 0.00 | 0.00 | 88 | 1015.9 |
| 20260505002605 | 47 | 263 | 3.0 | 5.0 | 0.00 | 0.00 | 0.00 | 88 | 1015.9 |
| 20260505002105 | 47 | 278 | 3.0 | 5.0 | 0.00 | 0.00 | 0.00 | 88 | 1015.9 |
| 20260505001105 | 46 | 304 | 3.0 | 5.0 | 0.00 | 0.00 | 0.00 | 87 | 1015.9 |
| 20260505000605 | 46 | 305 | 2.0 | 5.0 | 0.00 | 0.00 | 0.00 | 87 | 1015.9 |
| 20260505000105 | 46 | 301 | 2.0 | 3.0 | 0.00 | 0.00 | 0.00 | 87 | 1015.9 |
| 20260504235605 | 46 | 311 | 2.0 | 5.0 | 0.00 | 0.00 | 0.00 | 87 | 1015.9 |
| 20260504235104 | 47 | 309 | 3.0 | 3.0 | 0.00 | 0.00 | 0.00 | 87 | 1015.9 |
| 20260504234605 | 47 | 305 | 2.0 | 3.0 | 0.00 | 0.00 | 0.00 | 87 | 1015.9 |
| 20260504234105 | 47 | 311 | 2.0 | 5.0 | 0.00 | 0.00 | 0.00 | 87 | 1015.9 |